Location: Byszew
(52.1813°N, 19.2693°E)
Time: 21:30:33
(UTC+00:00)

Cosmos 1610 Rocket - Pass Details

Date: 03 March 2021
Orbit: 953 x 1002 km, 82.9° (Epoch: 15 April)

Event Time Altitude Azimuth Distance (km) Brightness Sun altitude
Rises 17:39:05 0° 186° (S) 3,640 7.5 -11.9°
Reaches altitude 10° 17:41:34 10° 186° (S) 2,704 6.8 -12.3°
Maximum altitude 17:47:46 86° 98° (E) 988 4.5 -13.3°
Drops below altitude 10° 17:54:06 10° 11° (N) 2,757 6.8 -14.2°
Sets 17:56:39 0° 11° (N) 3,716 7.5 -14.6°
